San Bernardino, CA

3:17 AM PST on December 14, 2019 (GMT -0800)
San Bernardino International

Weather History for KSBD - May, 2019

Change the Weather History Date:

Wednesday, May 15, 2019

  Actual Average Record
Temperature  
Mean Temperature 68 °F -  
Max Temperature 77 °F 79 °F 100 °F (2014)
Min Temperature 59 °F 52 °F 50 °F (2015)
Cooling Degree Days 3    
Growing Degree Days 18 (Base 50)    
Moisture  
Dew Point 53 °F    
Average Humidity 67    
Maximum Humidity 82    
Minimum Humidity 39    
Precipitation  
Precipitation 0.00 in - - ()
Sea Level Pressure  
Sea Level Pressure 29.94 in    
Wind  
Wind Speed 4 mph (WSW)    
Max Wind Speed 12 mph    
Max Gust Speed -    
Visibility 6 miles    
Events      
Averages and records for this station are not official NWS values.
T = Trace of Precipitation, MM = Missing Value Source: NWS Daily Summary

Daily Weather History Graph

Daily Weather History Graph

Search for Another Location

Airport or City:

Astronomy

May. 15, 2019 Rise Set
Actual Time 5:47 AM PDT 7:43 PM PDT
Civil Twilight 5:19 AM PDT 8:11 PM PDT
Nautical Twilight 4:46 AM PDT 8:45 PM PDT
Astronomical Twilight 4:10 AM PDT 9:20 PM PDT
Moon 4:31 PM PDT (5/15) 4:01 AM PDT (5/15)
Length of Visible Light 14h 51m
Length of Day
13h 56m
Waxing Gibbous, 88% of the Moon is Illuminated
May 15
Waxing Gibbous
May 18
Full
May 26
Last Quarter
Jun 3
New
Jun 9
First Quarter

Hourly Weather History & Observations

Time (PDT) Temp. Dew Point Humidity Pressure Visibility Wind Dir Wind Speed Gust Speed Precip Events Conditions
12:00 AM 63.5 °F 54.5 °F 72% 29.98 in 10.0 mi WSW 4.6 mph - N/A   Clear
12:20 AM 63.3 °F 54.7 °F 73% 29.97 in 10.0 mi West 3.5 mph - N/A   Clear
12:40 AM 62.8 °F 54.5 °F 74% 29.97 in 10.0 mi West 3.5 mph - N/A   Clear
1:00 AM 62.8 °F 54.7 °F 75% 29.96 in 10.0 mi Calm Calm - N/A   Clear
1:20 AM 62.6 °F 54.5 °F 75% 29.96 in 10.0 mi Calm Calm - N/A   Clear
1:40 AM 63.0 °F 54.7 °F 74% 29.95 in 10.0 mi Calm Calm - N/A   Clear
2:00 AM 62.6 °F 54.0 °F 73% 29.95 in 10.0 mi West 4.6 mph - N/A   Clear
2:20 AM 61.7 °F 54.5 °F 77% 29.95 in 10.0 mi West 5.8 mph - N/A   Clear
2:40 AM 61.9 °F 54.5 °F 77% 29.95 in 10.0 mi West 9.2 mph - N/A   Clear
3:00 AM 61.2 °F 54.1 °F 78% 29.95 in 7.0 mi WSW 4.6 mph - N/A   Clear
3:20 AM 60.4 °F 54.0 °F 79% 29.95 in 7.0 mi WSW 3.5 mph - N/A   Clear
3:40 AM 60.8 °F 54.1 °F 79% 29.95 in 7.0 mi WSW 5.8 mph - N/A   Clear
4:00 AM 60.1 °F 53.8 °F 80% 29.95 in 7.0 mi WSW 8.1 mph - N/A   Clear
4:20 AM 59.5 °F 53.6 °F 81% 29.96 in 5.0 mi West 8.1 mph - N/A   Haze
4:40 AM 59.5 °F 54.0 °F 82% 29.96 in 5.0 mi WSW 5.8 mph - N/A   Haze
5:00 AM 59.9 °F 54.5 °F 82% 29.95 in 5.0 mi WSW 3.5 mph - N/A   Haze
5:20 AM 60.1 °F 54.5 °F 82% 29.95 in 4.0 mi WSW 3.5 mph - N/A   Haze
5:41 AM 60.4 °F 54.5 °F 81% 29.95 in 4.0 mi SW 3.5 mph - N/A   Haze
7:00 AM 60.8 °F 55.4 °F 82% 29.96 in 2.0 mi Calm Calm - N/A   Overcast
7:48 AM 62.6 °F 53.6 °F 72% 29.95 in 2.0 mi Calm Calm - N/A   Overcast
8:52 AM 64.4 °F 53.6 °F 68% 29.95 in 3.0 mi Calm Calm - N/A   Haze
9:46 AM 68.0 °F 53.6 °F 60% 29.94 in 3.0 mi Calm Calm - N/A   Haze
9:50 AM 68.0 °F 53.6 °F 60% 29.94 in 3.0 mi Calm Calm - N/A   Haze
10:50 AM 71.6 °F 53.6 °F 53% 29.95 in 3.0 mi WSW 4.6 mph - N/A   Haze
12:51 PM 75.2 °F 50.0 °F 41% 29.94 in 3.0 mi Calm Calm - N/A   Haze
1:50 PM 75.2 °F 50.0 °F 41% 29.93 in 3.0 mi SW 6.9 mph - N/A   Haze
2:50 PM 77.0 °F 50.0 °F 39% 29.91 in 3.0 mi WSW 8.1 mph - N/A   Haze
3:50 PM 77.0 °F 50.0 °F 39% 29.89 in 4.0 mi WSW 11.5 mph - N/A   Haze
4:50 PM 75.2 °F 50.0 °F 41% 29.89 in 4.0 mi West 11.5 mph - N/A   Haze
5:59 PM 71.6 °F 50.0 °F 46% 29.88 in 4.0 mi WSW 10.4 mph - N/A   Haze
6:50 PM 69.8 °F 50.0 °F 49% 29.89 in 4.0 mi WSW 11.5 mph - N/A   Haze
7:50 PM 66.2 °F 51.8 °F 60% 29.91 in 4.0 mi WSW 11.5 mph - N/A   Haze
8:50 PM 62.6 °F 50.0 °F 63% 29.94 in 4.0 mi WSW 11.5 mph - N/A   Haze
9:41 PM 61.7 °F 50.9 °F 68% 29.95 in 10.0 mi WSW 3.5 mph - N/A   Overcast
10:00 PM 61.7 °F 50.5 °F 67% 29.94 in 10.0 mi West 4.6 mph - N/A   Overcast
10:20 PM 61.9 °F 50.5 °F 66% 29.94 in 10.0 mi WSW 3.5 mph - N/A   Overcast
10:40 PM 61.9 °F 50.5 °F 66% 29.95 in 10.0 mi WSW 6.9 mph - N/A   Overcast
11:20 PM 61.3 °F 50.2 °F 67% 29.95 in 10.0 mi WSW 6.9 mph - N/A   Overcast
11:41 PM 61.0 °F 49.8 °F 67% 29.95 in 10.0 mi WSW 8.1 mph - N/A   Overcast